Location: Newark
(51.3318°N, 0.0053°E)
Time: 23:01:05
(UTC+00:00)

ITUPSAT 1 - Pass Details

Date: 06 July 2022
Orbit: 701 x 711 km, 98.6° (Epoch: 09 August)

Event Time Altitude Azimuth Distance (km) Brightness Sun altitude
Rises 21:13:59 0° 11° (N) 3,115 ? -7.1°
Reaches altitude 10° 21:16:19 10° 6° (N) 2,194 ? -7.3°
Maximum altitude 21:20:55 49° 293° (WNW) 922 ? -7.8°
Drops below altitude 10° 21:25:31 10° 219° (SW) 2,183 ? -8.2°
Sets 21:27:50 0° 214° (SW) 3,099 ? -8.4°
